Total_Precipitation_Accumulation
0.25 0.28 0.29 0.30 0.26 0.24 0.25 0.27 0.24 0.23 0.26 0.26 0.28 0.29 0.27 0.20 0.12 0.09 0.08 0.10 0.10 0.10 0.19 0.18 0.23 0.18 0.15 0.12 0.09 0.07 0.05 0.07 0.09 0.08 0.08 0.07 0.02 0.01 0.01 0.02 0.06 0.17 0.32
0.31 0.35 0.38 0.41 0.33 0.35 0.39 0.46 0.49 0.57 0.55 0.60 0.66 0.66 0.64 0.53 0.40 0.29 0.21 0.18 0.19 0.18 0.20 0.27 0.31 0.29 0.27 0.22 0.16 0.11 0.10 0.11 0.11 0.11 0.10 0.12 0.09 0.04 0.00 0.00 0.02 0.11 0.27
0.27 0.32 0.42 0.53 0.55 0.59 0.59 0.67 0.82 0.90 0.88 0.91 0.94 0.94 1.02 1.06 0.87 0.62 0.43 0.36 0.34 0.33 0.32 0.33 0.40 0.36 0.34 0.32 0.28 0.17 0.16 0.16 0.11 0.10 0.17 0.20 0.16 0.10 0.03 0.01 0.03 0.06 0.13
0.26 0.36 0.47 0.67 0.82 0.82 0.80 0.91 1.01 1.08 1.10 1.11 1.07 1.06 1.09 1.05 0.90 0.69 0.50 0.42 0.43 0.45 0.44 0.41 0.42 0.45 0.44 0.42 0.36 0.26 0.25 0.19 0.16 0.20 0.23 0.18 0.16 0.11 0.07 0.05 0.05 0.07 0.10
0.32 0.48 0.59 0.73 0.79 0.81 0.92 1.11 1.21 1.25 1.23 1.14 1.00 1.00 0.97 0.97 0.91 0.75 0.61 0.53 0.51 0.47 0.43 0.47 0.55 0.58 0.58 0.51 0.38 0.33 0.35 0.27 0.21 0.22 0.21 0.14 0.11 0.09 0.09 0.08 0.12 0.10 0.06
0.45 0.58 0.69 0.78 0.77 0.82 1.00 1.15 1.21 1.24 1.19 1.14 1.10 1.12 1.12 1.05 0.97 0.84 0.74 0.59 0.47 0.37 0.36 0.39 0.46 0.50 0.52 0.49 0.42 0.36 0.34 0.29 0.23 0.19 0.24 0.27 0.22 0.23 0.19 0.10 0.11 0.08 0.02
0.65 0.72 0.78 0.79 0.82 0.90 0.99 1.01 1.01 0.99 0.98 1.01 1.06 1.05 1.01 0.96 0.89 0.79 0.67 0.53 0.42 0.34 0.33 0.30 0.24 0.25 0.30 0.38 0.44 0.38 0.35 0.28 0.23 0.22 0.24 0.28 0.27 0.27 0.27 0.21 0.14 0.08 0.03
0.97 1.09 1.07 1.00 0.93 0.90 0.88 0.82 0.79 0.75 0.72 0.74 0.79 0.78 0.73 0.70 0.67 0.63 0.58 0.52 0.45 0.39 0.33 0.26 0.19 0.15 0.16 0.23 0.35 0.38 0.40 0.34 0.27 0.25 0.21 0.21 0.18 0.16 0.23 0.34 0.30 0.20 0.15
0.72 0.99 1.02 0.93 0.83 0.71 0.61 0.54 0.48 0.42 0.39 0.37 0.37 0.39 0.41 0.42 0.42 0.42 0.42 0.41 0.37 0.31 0.25 0.20 0.16 0.14 0.12 0.13 0.19 0.31 0.39 0.42 0.38 0.36 0.31 0.26 0.23 0.18 0.19 0.29 0.38 0.33 0.34
0.57 0.61 0.63 0.63 0.61 0.56 0.47 0.37 0.27 0.19 0.16 0.13 0.12 0.12 0.11 0.11 0.12 0.12 0.13 0.14 0.15 0.14 0.12 0.10 0.08 0.08 0.07 0.09 0.17 0.28 0.39 0.44 0.44 0.40 0.36 0.37 0.34 0.33 0.27 0.25 0.35 0.39 0.49
0.31 0.31 0.31 0.33 0.38 0.39 0.33 0.25 0.19 0.14 0.10 0.06 0.04 0.03 0.02 0.02 0.02 0.02 0.02 0.02 0.03 0.03 0.03 0.03 0.03 0.04 0.03 0.03 0.07 0.15 0.27 0.37 0.41 0.36 0.35 0.40 0.43 0.48 0.36 0.35 0.38 0.43 0.54
0.12 0.11 0.11 0.13 0.15 0.15 0.15 0.14 0.12 0.10 0.06 0.02 0.01 0.00 0.00 0.00 0.00 0.00 0.00 0.00 0.00 0.00 0.00 0.01 0.01 0.01 0.01 0.02 0.03 0.05 0.15 0.31 0.41 0.49 0.53 0.54 0.57 0.58 0.45 0.45 0.53 0.62 0.68
0.05 0.05 0.05 0.07 0.08 0.10 0.11 0.12 0.12 0.14 0.07 0.02 0.01 0.01 0.01 0.00 0.00 0.00 0.00 0.00 0.00 0.00 0.00 0.00 0.00 0.00 0.00 0.01 0.01 0.02 0.06 0.16 0.29 0.39 0.53 0.63 0.70 0.72 0.66 0.56 0.62 0.76 0.84
0.03 0.03 0.03 0.04 0.05 0.07 0.11 0.13 0.16 0.12 0.05 0.03 0.03 0.02 0.01 0.01 0.01 0.00 0.00 0.00 0.00 0.00 0.00 0.00 0.00 0.00 0.00 0.01 0.01 0.02 0.03 0.06 0.14 0.21 0.25 0.33 0.43 0.51 0.60 0.60 0.56 0.59 0.73
0.02 0.02 0.02 0.03 0.03 0.03 0.05 0.09 0.11 0.08 0.05 0.04 0.03 0.02 0.02 0.02 0.01 0.01 0.01 0.00 0.00 0.00 0.00 0.00 0.00 0.00 0.00 0.00 0.01 0.02 0.02 0.03 0.07 0.09 0.10 0.13 0.16 0.18 0.22 0.29 0.39 0.44 0.50
0.02 0.02 0.03 0.05 0.03 0.02 0.03 0.06 0.08 0.07 0.06 0.06 0.06 0.05 0.04 0.03 0.02 0.01 0.01 0.00 0.00 0.00 0.00 0.00 0.00 0.00 0.00 0.00 0.00 0.01 0.01 0.02 0.03 0.03 0.04 0.06 0.10 0.09 0.09 0.11 0.16 0.24 0.34
0.02 0.03 0.04 0.04 0.03 0.03 0.04 0.06 0.07 0.07 0.08 0.09 0.09 0.10 0.08 0.06 0.04 0.03 0.01 0.01 0.00 0.00 0.00 0.00 0.00 0.00 0.00 0.00 0.00 0.00 0.00 0.00 0.00 0.00 0.01 0.01 0.03 0.04 0.04 0.06 0.07 0.09 0.11
0.03 0.05 0.06 0.04 0.04 0.04 0.04 0.06 0.09 0.13 0.17 0.17 0.17 0.16 0.12 0.08 0.06 0.05 0.05 0.04 0.03 0.02 0.01 0.00 0.00 0.00 0.00 0.00 0.00 0.00 0.00 0.00 0.00 0.00 0.00 0.00 0.00 0.01 0.02 0.02 0.02 0.03 0.04
0.05 0.07 0.10 0.09 0.09 0.08 0.07 0.08 0.11 0.18 0.24 0.21 0.20 0.19 0.16 0.13 0.09 0.08 0.07 0.07 0.06 0.04 0.02 0.00 0.00 0.00 0.00 0.00 0.00 0.00 0.00 0.00 0.00 0.00 0.00 0.00 0.00 0.00 0.00 0.00 0.01 0.01 0.00
0.14 0.19 0.24 0.26 0.23 0.22 0.15 0.13 0.13 0.17 0.22 0.23 0.21 0.18 0.17 0.16 0.13 0.09 0.07 0.06 0.06 0.05 0.03 0.01 0.01 0.00 0.00 0.00 0.00 0.00 0.00 0.00 0.00 0.00 0.00 0.00 0.00 0.00 0.00 0.00 0.00 0.01 0.00
0.17 0.25 0.31 0.41 0.45 0.48 0.40 0.31 0.25 0.23 0.23 0.22 0.21 0.20 0.19 0.18 0.12 0.08 0.07 0.06 0.06 0.05 0.05 0.03 0.02 0.02 0.01 0.00 0.00 0.00 0.00 0.00 0.00 0.00 0.00 0.00 0.00 0.00 0.00 0.00 0.00 0.00 0.00
0.10 0.15 0.26 0.33 0.42 0.50 0.55 0.54 0.48 0.35 0.27 0.23 0.22 0.20 0.23 0.24 0.19 0.14 0.10 0.07 0.06 0.08 0.08 0.07 0.05 0.03 0.02 0.01 0.00 0.00 0.00 0.00 0.00 0.00 0.00 0.00 0.00 0.00 0.00 0.00 0.00 0.00 0.00
0.07 0.11 0.17 0.24 0.26 0.27 0.32 0.43 0.43 0.37 0.35 0.31 0.28 0.25 0.25 0.27 0.26 0.24 0.22 0.15 0.11 0.09 0.09 0.08 0.06 0.05 0.04 0.03 0.02 0.01 0.00 0.00 0.00 0.00 0.00 0.00 0.00 0.00 0.00 0.00 0.00 0.00 0.00
0.09 0.11 0.15 0.17 0.17 0.18 0.18 0.22 0.23 0.22 0.26 0.32 0.35 0.32 0.29 0.29 0.28 0.29 0.28 0.25 0.23 0.19 0.17 0.14 0.10 0.07 0.06 0.05 0.05 0.03 0.02 0.01 0.00 0.00 0.00 0.00 0.00 0.00 0.00 0.00 0.00 0.00 0.00
0.16 0.16 0.16 0.16 0.17 0.18 0.18 0.15 0.13 0.13 0.18 0.21 0.24 0.26 0.28 0.29 0.30 0.29 0.27 0.25 0.24 0.22 0.22 0.19 0.13 0.10 0.08 0.07 0.07 0.06 0.04 0.03 0.02 0.01 0.00 0.00 0.00 0.00 0.00 0.00 0.00 0.00 0.00
0.10 0.08 0.08 0.07 0.07 0.09 0.11 0.10 0.07 0.07 0.12 0.15 0.19 0.18 0.19 0.22 0.23 0.23 0.21 0.18 0.16 0.15 0.13 0.12 0.11 0.10 0.07 0.06 0.05 0.04 0.04 0.03 0.03 0.03 0.02 0.01 0.01 0.00 0.00 0.00 0.00 0.00 0.00